Wind_Speed
31 35 30 25 30 23 16 17 13 14 13 14 18 17 17 16 14 10 8 9 7 2 2 6 7 7 4 4 7 5 4 6 6 10 8 19 20 16 15 11 15 19 24
25 32 31 31 32 28 25 21 20 12 16 17 19 22 22 21 19 15 12 10 9 8 7 4 7 9 9 6 4 6 5 5 6 10 11 15 14 15 11 8 11 16 24
25 27 29 38 36 34 28 23 18 14 12 18 20 22 23 22 19 19 20 17 13 12 14 7 4 8 7 8 8 3 5 4 8 15 15 13 12 12 5 8 8 12 18
25 26 31 30 33 36 28 30 29 25 22 24 22 21 22 19 19 20 20 18 18 15 16 10 8 9 11 12 14 7 1 7 8 15 13 11 10 10 4 9 9 12 15
24 24 31 32 33 31 28 29 28 26 27 25 23 23 24 24 19 21 18 25 25 21 16 13 11 12 16 16 18 12 7 8 13 20 9 7 8 8 6 7 10 11 12
25 26 30 38 36 33 29 26 31 31 29 30 26 29 27 25 23 24 26 26 29 28 22 18 15 15 16 18 14 13 10 7 16 19 9 6 8 9 6 8 8 7 10
23 25 29 33 39 44 46 42 35 34 36 31 33 34 33 32 26 28 30 29 29 32 29 23 19 17 17 15 13 14 12 17 16 15 12 7 10 8 7 8 7 5 5
25 28 31 31 33 38 46 52 47 39 38 39 35 36 42 37 34 32 34 37 31 32 32 25 21 18 19 15 10 11 11 15 16 15 12 12 8 11 9 9 10 9 8
23 25 27 30 30 31 30 33 36 41 45 41 43 40 41 35 26 23 24 28 33 32 34 28 25 21 21 17 18 16 7 10 9 4 16 16 15 14 12 12 13 12 14
21 21 23 27 28 27 31 32 31 36 48 48 48 50 45 41 40 40 39 34 31 32 35 31 29 25 23 24 21 18 12 12 13 11 14 13 13 15 15 14 16 16 13
24 25 28 29 29 29 27 28 26 30 35 38 44 51 56 49 42 41 40 40 34 33 36 31 27 24 21 25 23 30 20 19 14 15 15 14 15 19 19 17 17 15 16
27 26 25 24 26 22 26 28 31 31 30 30 32 37 38 38 35 35 37 38 37 37 35 31 29 23 27 24 27 29 22 21 17 15 28 26 22 24 25 20 20 19 17
29 29 29 28 25 24 26 30 28 25 23 26 27 30 29 27 30 35 36 38 38 40 41 34 31 28 29 29 28 29 25 24 22 27 31 29 21 24 23 22 19 14 14
32 31 30 28 30 29 26 26 27 24 19 21 22 28 32 30 29 33 35 37 38 40 40 36 31 29 27 30 26 26 26 31 31 31 31 31 27 27 24 23 21 21 19
30 31 34 36 35 29 26 26 26 26 22 21 19 25 29 29 28 30 34 37 43 45 43 39 38 38 36 30 26 26 30 38 32 35 29 26 28 28 27 28 29 27 26
34 29 33 38 35 23 20 26 24 23 23 20 20 23 24 24 24 26 29 34 36 42 45 44 42 41 42 39 35 33 34 39 39 38 36 35 38 41 36 38 34 33 33
30 28 35 37 31 18 18 22 23 21 22 18 17 16 18 20 20 23 26 31 34 35 37 40 42 43 43 39 38 39 38 42 47 48 49 51 54 52 45 40 39 37 37
25 29 32 29 28 28 22 14 16 15 18 14 13 9 11 14 15 19 22 24 27 28 27 28 30 34 37 39 40 38 39 45 49 56 59 59 57 53 51 45 43 41 42
15 17 24 25 23 21 16 17 18 10 13 10 8 3 2 1 6 10 12 16 19 19 20 21 22 25 30 35 39 42 41 40 43 42 42 46 49 46 45 44 44 45 47
5 9 17 29 27 24 20 19 14 5 8 6 9 15 19 19 15 13 11 3 7 10 12 14 17 20 25 30 32 33 39 39 40 44 45 42 42 45 45 46 47 50 43
8 9 18 28 35 37 27 14 5 8 14 23 23 20 12 10 5 8 11 13 14 23 26 26 31 25 27 27 30 35 36 38 41 44 46 49 49 45 45 49 49 45 45
20 11 3 11 26 30 41 19 3 19 26 28 22 14 9 4 8 18 21 21 21 26 33 36 34 37 35 29 28 30 33 34 36 38 42 44 44 46 46 48 50 47 47
30 24 21 21 11 16 20 25 16 24 21 18 12 16 11 11 30 33 34 33 29 27 36 43 44 42 39 32 34 34 34 34 33 36 40 45 46 46 46 46 50 50 55
46 42 41 31 23 2 12 29 27 31 24 18 14 20 27 36 45 48 52 45 39 32 38 46 48 50 48 47 46 45 43 40 42 43 41 42 44 48 50 50 50 53 55
49 43 39 29 25 19 40 45 32 39 35 31 27 35 42 43 48 45 42 47 47 43 45 46 47 49 49 55 51 45 45 46 49 48 49 48 49 50 51 52 54 56 59
49 48 46 37 27 34 43 42 44 49 42 41 38 33 30 43 50 50 47 44 42 47 44 45 53 56 60 58 53 52 49 47 48 50 53 57 58 56 55 55 59 61 63
Wind_Direction
266 266 263 245 253 259 243 266 265 269 266 243 237 244 248 271 263 267 269 244 244 266 276 264 249 265 268 3 56 17 349 326 299 1 296 333 346 348 350 353 5 33 32
268 253 252 244 250 255 251 259 263 261 261 253 246 250 248 255 265 260 277 273 265 294 260 287 253 248 269 272 310 346 0 11 322 330 294 321 349 352 6 13 26 38 34
274 258 246 238 247 248 254 251 257 259 254 255 246 251 256 250 244 243 263 270 254 272 273 291 289 254 289 269 295 310 0 22 301 324 309 325 331 353 12 13 357 21 18
278 266 252 246 245 248 253 246 262 262 257 257 260 253 248 258 257 252 261 261 269 273 271 267 275 274 273 266 292 292 294 309 298 327 310 322 315 342 352 358 12 22 20
274 265 250 242 246 238 258 253 258 258 255 254 251 260 249 243 253 270 258 251 261 258 266 260 265 250 249 255 268 283 293 282 300 297 293 320 327 342 327 5 3 13 21
279 264 248 240 239 233 244 255 258 254 251 246 237 251 262 257 254 259 260 263 255 255 258 268 261 260 251 261 260 284 291 277 292 288 264 289 324 337 353 359 343 2 23
278 279 274 263 251 248 252 257 255 268 254 235 239 248 251 260 252 261 270 264 258 256 259 259 260 255 244 238 248 293 285 276 263 265 254 258 285 312 323 326 347 358 22
290 279 274 277 273 267 264 264 260 245 250 248 242 247 248 242 248 258 266 272 264 257 253 248 257 254 249 235 237 280 247 253 258 258 269 244 255 272 279 291 303 315 309
290 281 276 280 284 284 281 269 264 250 245 245 248 244 247 242 230 252 273 274 262 255 252 245 249 244 240 238 232 224 216 228 261 276 275 246 243 253 279 277 287 304 308
306 303 300 293 286 286 288 285 284 262 250 253 250 247 243 240 241 255 267 275 262 253 246 241 241 242 238 236 225 224 243 248 274 246 266 280 249 250 262 260 277 291 298
309 309 304 299 289 284 273 279 276 285 277 262 252 245 244 248 253 256 255 260 248 244 246 242 243 237 234 237 238 233 240 249 268 273 260 262 281 283 278 277 281 280 277
305 305 302 287 287 291 278 277 289 292 279 272 257 246 243 249 252 248 242 239 234 234 237 236 235 230 231 241 235 238 238 231 267 247 247 262 271 280 277 279 277 269 256
299 303 302 301 293 285 280 279 287 285 281 271 261 251 249 243 239 236 233 231 230 231 234 231 231 232 236 240 243 237 235 224 250 267 263 268 277 275 267 271 272 272 271
304 303 301 296 293 293 293 296 300 303 295 276 256 250 249 246 241 237 234 225 222 223 228 227 225 232 235 238 236 230 231 233 227 244 257 263 279 260 262 259 263 273 274
295 299 302 304 299 293 289 291 301 309 303 288 258 242 240 236 234 232 231 231 229 228 230 232 227 229 234 235 234 228 241 233 224 237 252 250 256 260 256 263 265 278 271
293 299 315 321 313 278 288 293 297 302 303 293 262 237 235 239 240 236 232 234 233 233 233 233 235 237 238 242 241 235 229 236 228 233 230 239 244 262 272 275 272 277 268
293 306 323 334 332 294 289 294 295 298 301 298 269 248 240 243 249 246 238 236 237 235 237 239 240 240 245 246 243 244 238 231 233 238 238 238 246 264 272 274 277 272 267
296 326 348 340 332 323 298 295 283 289 293 294 268 241 237 241 251 263 263 252 249 251 251 252 252 249 247 246 250 247 248 245 240 236 239 247 256 264 266 271 271 267 268
339 10 10 7 342 321 298 298 306 298 285 275 248 203 146 258 265 264 265 262 259 261 265 266 264 264 259 254 251 251 248 249 250 245 250 254 256 256 261 265 267 270 275
16 15 12 24 17 1 344 322 324 291 253 156 104 99 104 97 81 76 63 37 282 312 293 294 299 289 283 268 263 259 252 254 253 251 246 253 253 257 259 263 270 270 264
207 54 34 27 22 15 0 341 355 184 145 117 121 116 91 82 24 330 297 287 298 292 295 288 301 305 302 285 275 268 261 257 254 253 252 253 255 259 263 267 274 259 252
222 227 278 339 22 25 5 344 271 145 139 136 127 124 107 78 262 256 258 257 266 274 284 291 288 294 306 286 288 286 275 269 258 256 255 257 259 261 265 269 271 251 250
234 238 244 274 17 22 0 333 270 169 163 169 159 146 162 221 269 251 252 261 260 257 275 281 285 287 289 281 283 286 284 276 269 269 265 261 262 262 264 267 266 261 256
238 250 254 266 240 68 337 301 218 202 195 212 200 279 274 274 254 246 246 259 260 261 264 270 277 283 281 284 290 288 288 286 277 276 269 268 266 266 265 267 266 266 264
244 244 244 242 240 204 178 250 247 211 221 245 265 270 263 273 270 266 257 252 251 258 264 263 268 273 275 285 291 288 289 288 285 280 271 269 270 271 268 269 267 267 267
237 229 229 233 221 195 212 232 244 239 241 253 278 297 279 265 268 269 243 253 244 244 241 250 260 269 272 278 281 281 280 287 285 285 283 282 282 278 278 276 273 271 270
Height
10944 10940 10945 10949 10951 10954 10956 10958 10959 10961 10962 10964 10965 10967 10970 10972 10973 10972 10972 10971 10971 10970 10971 10970 10972 10974 10974 10973 10972 10971 10970 10971 10972 10971 10970 10969 10968 10965 10963 10962 10961 10956 10952
10940 10938 10940 10943 10946 10950 10952 10955 10956 10955 10958 10961 10963 10965 10966 10968 10970 10970 10970 10970 10970 10971 10970 10970 10971 10972 10972 10972 10972 10971 10970 10970 10972 10972 10971 10970 10969 10966 10965 10963 10962 10958 10955
10931 10934 10936 10938 10939 10943 10947 10950 10952 10952 10952 10956 10958 10960 10962 10964 10964 10965 10966 10967 10969 10970 10969 10970 10970 10970 10970 10970 10970 10970 10969 10969 10970 10969 10968 10968 10968 10967 10965 10964 10962 10959 10957
10926 10927 10928 10930 10933 10936 10939 10943 10945 10947 10949 10950 10953 10954 10956 10957 10960 10962 10963 10964 10965 10967 10967 10967 10967 10966 10967 10967 10968 10969 10968 10968 10968 10969 10968 10967 10967 10966 10965 10965 10963 10960 10959
10922 10922 10923 10924 10925 10926 10929 10934 10938 10940 10943 10944 10946 10948 10950 10952 10954 10956 10958 10960 10960 10963 10964 10964 10964 10964 10964 10965 10966 10965 10965 10964 10966 10967 10968 10966 10966 10966 10965 10965 10964 10962 10960
10915 10916 10917 10918 10920 10921 10923 10926 10929 10933 10935 10937 10940 10941 10943 10946 10947 10950 10952 10953 10955 10957 10958 10960 10961 10961 10961 10962 10962 10963 10962 10962 10964 10966 10966 10965 10965 10965 10965 10965 10963 10962 10961
10909 10908 10907 10909 10913 10915 10915 10919 10921 10922 10926 10928 10931 10933 10936 10939 10940 10942 10944 10946 10948 10950 10952 10955 10956 10957 10958 10958 10958 10959 10958 10960 10962 10964 10964 10963 10963 10964 10964 10964 10963 10963 10962
10905 10903 10902 10902 10904 10905 10907 10908 10911 10914 10916 10917 10921 10924 10927 10931 10933 10935 10937 10938 10940 10943 10946 10949 10951 10952 10953 10955 10955 10955 10955 10957 10959 10961 10961 10961 10961 10961 10962 10963 10963 10962 10962
10902 10900 10898 10898 10897 10896 10896 10897 10898 10901 10904 10907 10910 10913 10918 10921 10923 10926 10928 10931 10932 10936 10939 10942 10944 10947 10948 10950 10950 10952 10953 10955 10956 10956 10957 10957 10958 10959 10960 10960 10960 10958 10959
10897 10896 10893 10891 10890 10889 10888 10888 10888 10889 10891 10895 10898 10901 10907 10909 10912 10915 10919 10922 10924 10928 10932 10935 10937 10940 10941 10944 10947 10948 10949 10951 10952 10952 10954 10954 10954 10956 10957 10957 10957 10956 10956
10893 10890 10887 10885 10882 10882 10881 10882 10882 10880 10880 10883 10885 10887 10892 10897 10901 10905 10908 10911 10915 10919 10925 10928 10931 10933 10935 10938 10940 10941 10943 10946 10947 10948 10949 10950 10951 10952 10953 10953 10953 10953 10953
10887 10886 10884 10881 10877 10875 10874 10874 10872 10872 10871 10870 10872 10876 10879 10884 10888 10892 10896 10899 10904 10910 10916 10920 10923 10925 10928 10931 10934 10936 10938 10942 10943 10943 10944 10945 10947 10947 10948 10949 10949 10948 10948
10881 10880 10878 10875 10873 10871 10869 10867 10866 10863 10860 10860 10862 10864 10867 10871 10875 10879 10883 10890 10896 10902 10907 10911 10914 10918 10921 10925 10928 10930 10934 10937 10937 10937 10939 10940 10942 10941 10942 10943 10944 10943 10944
10873 10871 10870 10868 10864 10863 10862 10860 10858 10855 10853 10852 10852 10855 10858 10862 10866 10869 10874 10879 10886 10894 10898 10903 10907 10910 10915 10918 10921 10925 10928 10931 10932 10933 10933 10934 10935 10936 10936 10937 10938 10938 10938
10868 10865 10862 10861 10858 10858 10856 10854 10851 10847 10846 10844 10844 10847 10851 10854 10858 10862 10867 10872 10878 10884 10890 10895 10899 10902 10906 10911 10914 10917 10921 10923 10925 10926 10928 10928 10928 10928 10929 10930 10931 10932 10932
10864 10863 10859 10857 10850 10846 10848 10848 10847 10843 10841 10839 10838 10839 10843 10846 10849 10853 10861 10866 10871 10876 10881 10886 10890 10894 10898 10903 10907 10910 10913 10914 10916 10917 10920 10920 10921 10920 10921 10923 10924 10924 10924
10860 10859 10855 10850 10846 10843 10842 10841 10841 10838 10834 10834 10833 10833 10836 10842 10846 10850 10855 10859 10864 10868 10872 10876 10880 10885 10888 10892 10897 10900 10903 10905 10907 10908 10909 10910 10911 10912 10913 10914 10915 10916 10917
10857 10855 10848 10843 10841 10838 10835 10833 10833 10832 10830 10828 10828 10828 10832 10838 10842 10847 10852 10855 10860 10863 10866 10869 10872 10875 10878 10881 10884 10889 10892 10894 10895 10897 10898 10900 10902 10903 10903 10904 10905 10907 10908
10854 10851 10847 10840 10835 10832 10832 10830 10829 10828 10829 10827 10827 10828 10831 10836 10840 10844 10848 10851 10855 10857 10859 10861 10863 10866 10868 10870 10873 10876 10880 10883 10885 10886 10888 10889 10891 10892 10893 10894 10895 10896 10896
10849 10847 10843 10834 10830 10827 10825 10823 10825 10825 10825 10826 10830 10833 10831 10835 10840 10843 10844 10847 10850 10852 10854 10855 10856 10858 10860 10861 10862 10864 10866 10870 10873 10876 10877 10878 10880 10882 10883 10884 10884 10885 10885
10843 10839 10836 10829 10826 10823 10824 10825 10822 10822 10823 10824 10823 10827 10833 10834 10835 10839 10842 10844 10846 10845 10846 10848 10850 10849 10851 10853 10854 10855 10855 10857 10860 10862 10864 10866 10869 10870 10871 10872 10872 10873 10874
10831 10829 10826 10826 10821 10818 10826 10831 10831 10829 10823 10821 10824 10823 10824 10829 10835 10839 10837 10835 10836 10838 10838 10838 10841 10841 10843 10844 10846 10847 10848 10848 10849 10851 10853 10855 10857 10859 10860 10860 10860 10862 10863
10820 10819 10817 10816 10814 10816 10827 10839 10843 10833 10828 10826 10823 10820 10823 10822 10822 10824 10827 10825 10827 10827 10828 10827 10829 10833 10835 10837 10838 10838 10838 10838 10839 10841 10843 10843 10845 10846 10846 10847 10847 10848 10849
10804 10807 10807 10808 10808 10806 10817 10840 10839 10836 10827 10823 10823 10817 10814 10810 10804 10807 10815 10814 10818 10817 10819 10816 10816 10816 10821 10824 10826 10826 10826 10827 10828 10830 10830 10832 10832 10833 10833 10833 10833 10833 10834
10793 10793 10794 10795 10793 10787 10786 10829 10830 10823 10820 10820 10815 10812 10806 10799 10799 10799 10800 10803 10807 10810 10811 10808 10805 10802 10805 10808 10810 10811 10811 10812 10813 10817 10818 10819 10819 10819 10818 10818 10818 10818 10818
10780 10781 10783 10784 10782 10785 10794 10800 10803 10804 10803 10803 10804 10802 10797 10791 10793 10792 10793 10794 10796 10798 10799 10799 10797 10794 10795 10797 10796 10797 10796 10798 10798 10799 10800 10800 10801 10803 10802 10802 10802 10802 10800